Regional Weather Roundup
Issued by NWS Wilmington, NC

Home | Current Version | Previous Version | Text Only | Print | Product List | Glossary On
Versions: 1 2 3 4 5 6 7 8 9 10 11 12 13 14 15 16 17 18 19 20 21 22 23 24 25 26 27 28
000
ASUS42 KILM 011413
RWRILM
RWRILM
REGIONAL HOURLY WEATHER ROUNDUP
NATIONAL WEATHER SERVICE WILMINGTON NC
1000 AM EDT SUN MAY 01 2016

NOTE: "FAIR" INDICATES FEW OR NO CLOUDS BELOW 12,000 FEET WITH NO
SIGNIFICANT WEATHER AND/OR OBSTRUCTIONS TO VISIBILITY.

...............WFO WILMINGTON COUNTY WARNING AREA...............

......COASTAL NC AND SC COUNTIES......

CITY           SKY/WX    TMP DP  RH WIND       PRES   REMARKS
WILMINGTON     PTSUNNY   74  64  71 S13G20    30.12R
N MYRTLE BEACH PTSUNNY   74  66  76 SE9       30.10S
MYRTLE BEACH   MOSUNNY   77  63  61 S14       30.11F

......INLAND NC AND SC COUNTIES.......

CITY           SKY/WX    TMP DP  RH WIND       PRES   REMARKS
LUMBERTON      CLOUDY    71  64  78 S6        30.09R
ELIZABETHTOWN  CLOUDY    71  65  81 S7        30.10S
WHITEVILLE     CLOUDY    73  64  75 SE8G17    30.09F
FLORENCE       CLOUDY    72  66  81 S6        30.10R
DARLINGTON     NOT AVBL
KINGSTREE      PTSUNNY   73  64  73 SE9       30.08R
HARTSVILLE     CLOUDY   N/A N/A N/A S3        30.10R
BENNETTSVILLE  CLOUDY    72  66  83 S7        30.10R
CONWAY         FAIR      75  64  69 S13       30.09S HAZE
GEORGETOWN     FAIR      75  64  69 S12       30.11R
MARION         CLOUDY    70  64  83 CALM      30.10R

....................REST OF NORTH CAROLINA......................

.........EASTERN NC.........

CITY           SKY/WX    TMP DP  RH WIND       PRES   REMARKS
CAPE HATTERAS  MOSUNNY   71  62  73 S6        30.14R
JACKSONVILLE   CLOUDY    69  65  86 SE5       30.12S
MOREHEAD CITY  PTSUNNY   72  65  78 S9        30.13R
KENANSVILLE    PTSUNNY   68  63  83 SE5       30.12F
NEW BERN       CLOUDY    70  63  78 SE3       30.13F
ELIZABETH CITY CLOUDY    62  56  80 E6        30.13F

.........CENTRAL NC.........

CITY           SKY/WX    TMP DP  RH WIND       PRES   REMARKS
RALEIGH DURHAM CLOUDY    64  61  88 S9        30.09S
ROCKY MOUNT    CLOUDY    62  58  86 SE7       30.11F
ROANOKE RAPIDS NOT AVBL
FAYETTEVILLE   CLOUDY    67  63  87 SE5       30.09S
HOFFMAN        CLOUDY    65  63  92 SE5       30.10R

.........WESTERN NC.........

CITY           SKY/WX    TMP DP  RH WIND       PRES   REMARKS
CHARLOTTE      PTSUNNY   66  64  93 S6        30.07R
GREENSBORO     LGT RAIN  63  62  97 S13       30.05S FOG
HICKORY        NOT AVBL
BOONE          NOT AVBL
ASHEVILLE      NOT AVBL

.....................REST OF SOUTH CAROLINA.....................

.........EASTERN SC.........

CITY           SKY/WX    TMP DP  RH WIND       PRES   REMARKS
CHARLESTON     PTSUNNY   79  67  66 S10       30.08R
BEAUFORT MCAS  CLOUDY    79  72  79 S5        30.07S
HILTON HEAD    PTSUNNY   77  72  83 S9        30.09R

.........CENTRAL SC.........

CITY           SKY/WX    TMP DP  RH WIND       PRES   REMARKS
COLUMBIA       CLOUDY    73  69  87 S8        30.05R
ORANGEBURG     CLOUDY    75  69  81 S12       30.07R
SUMTER SHAW    CLOUDY    72  68  88 S6        30.05R

.........WESTERN SC.........

CITY           SKY/WX    TMP DP  RH WIND       PRES   REMARKS
GREENVILLE     NOT AVBL
ROCK HILL        N/A    N/A N/A N/A MISG      30.07R
ANDERSON       PTSUNNY   70  68  93 SW8       30.04S
CLEMSON        NOT AVBL
GREENWOOD      CLOUDY    74  68  81 SW12      30.06R


...................COASTAL AND OFFSHORE REPORTS..................

................LOCAL PIERS AND NC RESERVE................


STATION/POSITION TIME  SKY/WX   TEMP    WIND        PRES    VSBY
                                AIR SEA DIR/SP/G
                 (UTC)          (F)     (DEG/KT/KT) (MB)    (MI)
JOHNY MRCER PIER 1300            70 69  190/  7/  8 1018.4R
NC RESRV MASNBRO NOT AVBL
OCEAN CREST PIER NOT AVBL
SPRINGMAID  PIER 1300            71 71  140/  5/  5 1019.0R


................COASTAL AND OFFSHORE BUOYS................


STATION/POSITION TIME  SKY/WX   TEMP    WIND        PRES    VSBY
                                AIR SEA DIR/SP/G
                 (UTC)          (F)     (DEG/KT/KT) (MB)    (MI)
DIMNDSHOAL 41025 1350            73 73  180/ 12/ 14 1020.3R
WVE H/P(F/S)=  4/10 SWL H/P/D(F/S/D)=  3/ 50/10

CAPE LOOKOUT     1400            69     160/  7/  8 1019.8R
ONSLOW BAY 41036 NOT AVBL
ONSLOW BAY 41064 NOT AVBL
ONSLOW BAY 41159 1325               68                N/A
WVE H/P(F/S)=  4/ 9 SWL H/P/D(F/S/D)=  2/ 80/11

5SE WRITBC 41038 NOT AVBL
MASNBO INL 41110 1306               68                N/A
WVE H/P(F/S)=  3/ 5

WILM HARBR 41108 1326               68                N/A
WVE H/P(F/S)=  3/ 5

27SE WRITB 41037 1308            74 71  180/ 14/ 19 1018.7F
FRYING PAN 41013 1300            72 70  150/ 14/ 17 1019.0R
SUNST NRSH 41024 1308            71 68  170/  4/  8 1019.2R
CAPRS NRSH 41029 1308            73 71  160/ 10/ 16 1018.3R
EDISTO     41004 1350            75 72  170/ 12/ 14 1018.6R
WVE H/P(F/S)=  5/ 6 SWL H/P/D(F/S/D)=  3/ 6



..........OFFSHORE BUOYS BEYOND 100 NM OFFSHORE...........
.....IN A TRIANGLE---HAT TO BERMUDA TO BAHAMAS TO HAT.....


STATION/POSITION TIME  SKY/WX   TEMP    WIND        PRES    VSBY
                                AIR SEA DIR/SP/G
                 (UTC)          (F)     (DEG/KT/KT) (MB)    (MI)
150E HAT   41001 NOT AVBL
W BERMUDA  41048 NOT AVBL
ATLANTIC S 41049 1350            74 76  350/  4/  6 1019.5R
WVE H/P(F/S)=  3/ 9 SWL H/P/D(F/S/D)=  3/110/ 9

E BAHAMAS  41046 1350            79 79   90/ 12/ 14 1017.9R
WVE H/P(F/S)=  3/ 9 SWL H/P/D(F/S/D)=  2/ 80/ 9

NE BAHAMAS 41047 1350            76 77   80/ 10/ 12 1020.0R
WVE H/P(F/S)=  3/ 9 SWL H/P/D(F/S/D)=  3/ 80/ 9

120E CANVRL41010 1320            77 77  140/ 14/ 16 1018.0S

END




USA.gov is the U.S. government's official web portal to all federal, state and local government web resources and services.